Regional Weather Roundup
Issued by NWS Cleveland, OH

Home | Current Version | Previous Version | Graphics & Text | Print | Product List | Glossary On
Versions: 1 2 3 4 5 6 7 8 9 10 11 12 13 14 15 16 17 18 19 20 21 22 23 24 25 26 27 28 29 30 31 32 33 34 35 36 37 38 39 40 41 42 43 44 45 46 47 48 49 50
000
ASUS41 KCLE 290510
RWRCLE
OHIO REGIONAL WEATHER ROUNDUP
NATIONAL WEATHER SERVICE CLEVELAND, OH
100 AM EDT FRI APR 29 2016

NOTE: "FAIR" INDICATES FEW OR NO CLOUDS BELOW 12,000 FEET WITH NO
SIGNIFICANT WEATHER AND/OR OBSTRUCTIONS TO VISIBILITY.

OHZ001>008-015>018-024>027-034-035-043-044-290600-
   NORTHWEST OHIO

CITY           SKY/WX    TMP DP  RH WIND       PRES   REMARKS
DEFIANCE       CLOUDY    48  36  63 NE5       30.00S
FINDLAY        CLOUDY    47  41  80 NE9       29.96F
TOLEDO EXPRESS LGT RAIN  46  37  71 E10       29.99S
TOLEDO EXEC    CLOUDY    47  37  68 NE12      30.00S
LIMA           CLOUDY    45  44  97 N5        29.97S FOG
$$

OHZ009>014-019>023-028>033-038-089-290600-
   NORTHEAST OHIO

CITY           SKY/WX    TMP DP  RH WIND       PRES   REMARKS
CLE-HOPKINS    CLOUDY    48  44  86 NE6       29.98F
CLE-LAKEFRONT  CLOUDY    48  43  82 NE8       29.95F
CUY CO. ARPT   NOT AVBL
LORAIN-ELYRIA  LGT RAIN  46  42  86 NE5       29.98R
ASHTABULA      CLOUDY    44  42  93 CALM      29.99R
AKRON-CANTON   CLOUDY    46  43  89 NE7       29.94F FOG
WOOSTER        LGT RAIN  47  45  93 S3        29.97R
MANSFIELD      CLOUDY    48  47  96 NE5       29.95F
YOUNGSTOWN     DRIZZLE   45  42  89 E5        29.95F
$$

OHZ042-051>053-060>062-070>072-077>081-290600-
  SOUTHWEST OHIO

CITY           SKY/WX    TMP DP  RH WIND       PRES   REMARKS
CINC-COVINGTON CLEAR     58  57  97 N5        29.95R FOG
CINC-LUNKEN    PTCLDY    57  57 100 NE3       29.96R FOG
HAMILTON       CLOUDY    57  54  89 NE3       29.97R FOG
DAYTON         CLOUDY    51  50  96 N5        29.97S FOG
WRIGHT-PAT AFB MOCLDY    51  51 100 CALM      29.96R
DAYTON GENERAL MOCLDY    51  49  92 N5        29.95S FOG
WILMINGTON     CLEAR     51  50  96 CALM      29.95R FOG
$$

OHZ036-037-039>041-045>050-054>059-063>069-073>076-082>088-290600-
  CENTRAL AND SOUTHEAST OHIO

CITY           SKY/WX    TMP DP  RH WIND       PRES   REMARKS
COLUMBUS       MOCLDY    51  48  89 NE3       29.94S
OSU AIRPORT    MOCLDY    52  50  93 NW3       29.94S FOG
BOLTON FIELD   CLOUDY    51  50  97 CALM      29.95S
RICKENBACK AFB PTCLDY    53  51  95 NE3       29.94S FOG
NEWARK         CLOUDY    55  49  80 CALM      29.94R
MARION         CLOUDY    48  47  96 N7        29.96R FOG
LANCASTER      CLOUDY    55  52  89 CALM      29.95S FOG
ZANESVILLE     CLOUDY    54  50  86 N6        29.94R
NEW PHILLY     CLOUDY    48  44  86 CALM      29.96R
$$



USA.gov is the U.S. government's official web portal to all federal, state and local government web resources and services.